RH
36 35 32 32 37 37 35 36 36 34 32 31 31 31 30 30 31 31 31 29 28 28 30 35 35 37 39 40 42 42 43 40 40 39 29 27 29 27 26 25 23 22 19 17 20 23 23 24 24 23 22 21
35 35 32 32 37 35 32 33 33 33 33 31 31 30 30 30 30 30 29 26 24 24 26 30 31 33 36 39 40 41 42 40 39 37 27 25 27 25 24 22 18 16 15 15 19 20 22 23 23 23 22 21
35 35 33 33 35 31 28 30 34 34 33 32 30 30 30 29 29 29 27 22 21 22 23 25 27 29 32 33 36 39 39 38 37 33 25 23 25 23 21 18 14 13 12 13 15 17 19 20 21 22 22 21
35 34 33 34 35 32 29 30 34 34 33 32 31 30 29 29 29 28 24 19 18 20 21 21 23 26 28 28 29 34 37 35 32 28 24 22 20 18 16 14 13 12 11 11 12 14 16 18 20 21 21 22
35 34 35 36 37 35 31 32 35 35 34 32 31 30 29 29 29 27 21 17 17 18 19 19 21 23 25 25 26 29 31 30 28 24 21 18 16 15 14 13 13 12 11 11 11 12 14 16 18 19 20 21
34 34 36 39 39 37 33 34 36 36 34 33 31 31 30 29 29 25 19 16 17 17 17 18 20 22 23 23 23 23 24 23 22 19 16 15 15 15 14 14 13 12 12 11 11 11 12 14 15 16 18 19
34 36 38 41 42 39 36 36 37 37 35 33 32 31 30 30 29 25 19 17 17 16 16 17 18 20 20 19 18 18 18 17 16 15 15 15 15 15 14 14 14 13 13 12 12 12 12 13 13 14 15 16
36 38 40 41 43 41 37 38 38 38 36 34 32 31 30 30 29 24 19 18 17 17 16 16 17 17 18 17 16 15 14 15 15 15 15 14 15 14 14 14 14 14 13 13 13 13 13 13 13 13 13 14
38 40 42 42 44 43 39 39 40 39 37 35 33 32 31 31 30 24 20 19 18 18 17 16 16 16 17 17 16 15 14 14 14 15 15 15 15 15 14 14 14 14 14 14 14 14 14 14 14 13 13 13
40 41 43 44 44 44 41 41 42 40 38 36 34 33 31 32 30 25 21 20 19 19 18 17 16 16 17 17 16 15 13 13 14 14 15 15 15 15 15 15 15 15 15 15 15 15 15 15 15 15 15 15
40 41 45 46 45 45 42 43 44 41 39 37 35 33 32 33 31 26 22 22 21 20 19 17 17 16 17 17 17 15 13 13 13 14 15 16 16 16 16 16 16 16 16 16 16 16 16 16 16 16 17 16
41 43 47 48 46 45 44 44 45 42 40 39 36 34 33 34 32 27 24 23 22 22 20 19 18 17 17 17 17 16 15 13 13 14 15 16 16 17 17 17 17 17 17 17 17 17 17 17 18 18 18 18
43 45 48 48 47 46 44 46 46 44 42 40 38 36 34 35 34 29 26 25 24 23 22 21 20 18 18 17 18 17 16 14 14 14 14 15 16 17 17 18 18 18 19 19 19 18 19 19 19 19 19 19
44 47 49 49 48 46 45 47 47 45 43 41 39 37 36 36 35 31 28 27 27 25 24 23 21 20 19 18 18 18 17 16 14 14 14 15 16 17 17 18 18 18 19 19 20 19 20 20 20 20 20 20
46 48 50 50 49 46 46 47 48 47 44 43 41 39 37 37 36 33 30 29 29 28 26 25 23 21 20 19 20 19 19 18 16 15 15 15 16 16 17 17 17 17 18 18 18 19 19 20 20 20 20 20
47 50 51 50 49 47 47 48 49 49 46 44 43 40 39 38 37 35 32 31 31 30 28 27 25 23 21 20 21 21 21 20 19 17 16 16 16 16 17 16 17 16 16 16 17 17 17 18 18 19 19 20
49 51 52 51 49 48 47 48 49 49 47 46 44 42 40 40 39 36 34 33 33 32 31 29 27 24 22 22 22 22 23 23 22 20 19 18 18 17 17 16 16 16 16 16 16 16 16 17 17 18 19 19
50 52 53 51 49 48 48 49 49 50 49 47 46 44 42 41 41 38 36 35 35 34 33 31 28 26 24 23 23 23 24 25 24 24 23 22 21 20 19 18 17 16 16 15 15 15 15 16 16 17 18 18
51 53 53 50 49 48 49 49 49 50 50 49 48 46 44 43 42 40 37 36 36 36 35 33 30 28 25 24 24 24 25 26 26 26 26 25 24 23 22 20 18 17 16 16 15 15 15 16 16 17 17 18
51 54 54 52 50 49 50 51 51 51 51 51 50 48 46 45 44 41 38 37 37 37 36 35 33 30 27 26 25 25 26 26 27 27 27 27 27 27 26 24 22 19 18 17 17 16 16 16 16 17 17 17
50 53 55 54 51 49 51 53 53 52 52 53 52 50 49 47 46 43 40 39 38 38 38 37 35 32 29 28 27 26 27 27 28 28 29 29 28 28 28 27 25 23 21 19 18 18 17 17 17 17 17 17
51 53 55 54 52 50 52 55 56 54 53 55 54 52 51 49 48 46 42 40 39 40 40 39 36 34 31 30 28 28 28 28 29 29 29 30 30 29 29 28 27 26 25 23 21 20 19 19 19 19 18 18
53 53 55 55 52 52 54 56 58 56 54 55 56 54 53 51 50 49 45 42 41 41 41 40 38 36 33 31 30 30 29 29 29 30 30 30 31 30 29 29 28 28 27 27 25 23 22 21 21 20 20 19
55 55 55 55 54 53 55 56 58 58 55 55 56 56 55 54 52 51 48 45 43 43 42 42 40 37 35 33 32 31 31 31 31 31 31 31 31 31 30 30 29 29 29 29 28 26 25 24 22 22 21 21
57 57 57 55 54 54 56 58 59 60 57 55 56 57 56 56 55 54 52 48 45 44 44 43 41 38 36 35 34 33 32 32 32 32 32 32 32 32 31 31 30 30 29 29 29 28 27 26 24 23 23 22
59 59 59 55 53 54 56 58 60 62 61 58 57 58 58 58 58 57 56 53 48 45 45 44 42 40 38 36 35 35 34 34 34 34 34 34 33 33 33 32 31 30 30 30 29 29 28 27 26 26 25 24
62 61 60 57 54 55 56 59 61 63 63 61 58 58 59 60 60 61 59 56 51 47 45 44 43 42 40 38 37 36 35 35 34 34 35 35 35 35 34 34 33 32 31 31 31 30 29 29 28 28 26 26
65 62 61 58 55 56 58 60 63 65 66 64 61 59 59 60 61 61 60 57 54 49 46 45 45 45 43 40 39 39 36 35 35 35 35 36 36 36 36 35 34 34 33 33 33 32 31 30 29 28 27 27
63 62 61 59 56 56 59 62 65 67 68 66 64 61 59 58 59 60 59 59 56 52 48 47 47 45 43 40 40 40 38 36 36 35 35 36 36 37 37 37 36 35 35 35 34 33 32 31 31 30 28 28
60 59 59 58 57 56 58 62 65 66 67 67 67 65 62 60 58 59 60 60 59 56 52 50 48 44 42 41 40 40 38 37 36 35 36 36 37 37 38 37 37 37 36 36 36 35 33 32 32 31 30 29
58 57 57 58 58 59 59 61 65 67 68 69 70 70 68 65 62 60 61 61 61 59 54 50 47 43 40 40 40 39 38 37 36 36 36 37 37 38 38 38 38 38 37 37 36 35 35 34 33 32 31 30